Location: Aranbee
(34.0885°N, 118.2342°W)
Time: 05:14:09
(UTC+00:00)

deb Explorer IX - Pass Details

Date: 04 December 2020
Orbit: 536 x 1104 km, 38.8° (Epoch: 17 January)

Event Time Altitude Azimuth Distance (km) Brightness Sun altitude
Rises 01:06:34 0° 282° (WNW) 3,665 ? -5.2°
Reaches altitude 10° 01:09:27 10° 287° (WNW) 2,631 ? -5.7°
Maximum altitude 01:15:35 55° 4° (N) 985 ? -6.9°
Drops below altitude 10° 01:20:46 10° 83° (E) 2,232 ? -7.9°
Enters shadow 01:21:02 - 83° (E) 2,328 ? -8.0°
